NKS510 KTPA-KATL

Flight info

Callsign NKS510
Flight time 1h 0m
Altitude 35000
Route BAYPO2 CAMJO LAIRI LARZZ JJEDI4
Aircraft A321/M-SDE3FGHIRWY/LB1

Departure

Time 2026-05-03 23:11
Airport Tampa International Airport (KTPA)

Arrival

Time 2026-05-04 00:12
Airport Hartsfield Jackson Atlanta International Airport (KATL)
Time Latitude Longitude Altitude Speed Heading
2026-05-03 22:42 27.97505 -82.53269 41 ft 0 kts 92°
2026-05-03 22:58 27.97505 -82.53270 41 ft 2 kts 92°
2026-05-03 22:59 27.97505 -82.53289 40 ft 3 kts 92°
2026-05-03 22:59 27.97508 -82.53312 39 ft 3 kts 111°
2026-05-03 22:59 27.97518 -82.53331 37 ft 3 kts 133°
2026-05-03 22:59 27.97534 -82.53344 38 ft 3 kts 181°
2026-05-03 23:00 27.97532 -82.53347 37 ft 3 kts 195°
2026-05-03 23:00 27.97531 -82.53348 37 ft 0 kts 195°
2026-05-03 23:03 27.97524 -82.53350 38 ft 3 kts 195°
2026-05-03 23:03 27.97486 -82.53361 38 ft 8 kts 193°
2026-05-03 23:04 27.97424 -82.53361 37 ft 10 kts 159°
2026-05-03 23:04 27.97362 -82.53325 37 ft 10 kts 162°
2026-05-03 23:04 27.97313 -82.53366 37 ft 11 kts 261°
2026-05-03 23:04 27.97313 -82.53467 36 ft 14 kts 272°
2026-05-03 23:05 27.97338 -82.53601 30 ft 22 kts 289°
2026-05-03 23:05 27.97414 -82.53755 31 ft 20 kts 303°
2026-05-03 23:05 27.97486 -82.53878 34 ft 18 kts 303°
2026-05-03 23:05 27.97518 -82.54004 34 ft 14 kts 273°
2026-05-03 23:06 27.97475 -82.54071 35 ft 10 kts 188°
2026-05-03 23:06 27.97393 -82.54075 36 ft 14 kts 182°
2026-05-03 23:06 27.97264 -82.54080 37 ft 21 kts 181°
2026-05-03 23:06 27.97123 -82.54085 39 ft 20 kts 181°
2026-05-03 23:07 27.96984 -82.54089 40 ft 20 kts 181°
2026-05-03 23:07 27.96838 -82.54095 37 ft 22 kts 184°
2026-05-03 23:07 27.96678 -82.54101 35 ft 24 kts 182°
2026-05-03 23:07 27.96513 -82.54106 33 ft 24 kts 181°
2026-05-03 23:08 27.96381 -82.54111 28 ft 15 kts 186°
2026-05-03 23:08 27.96340 -82.54164 27 ft 9 kts 266°
2026-05-03 23:08 27.96340 -82.54191 27 ft 2 kts 272°
2026-05-03 23:08 27.96342 -82.54214 27 ft 4 kts 276°
2026-05-03 23:09 27.96363 -82.54235 28 ft 4 kts
2026-05-03 23:09 27.96373 -82.54233 28 ft 0 kts
2026-05-03 23:10 27.96441 -82.54231 30 ft 38 kts
2026-05-03 23:10 27.96951 -82.54214 41 ft 106 kts
2026-05-03 23:11 27.97893 -82.54177 47 ft 160 kts
2026-05-03 23:11 27.99019 -82.54134 687 ft 155 kts
2026-05-03 23:11 28.00105 -82.54152 1341 ft 158 kts 359°
2026-05-03 23:11 28.01249 -82.54224 1643 ft 176 kts 358°
2026-05-03 23:12 28.02543 -82.54392 1839 ft 198 kts 354°
2026-05-03 23:12 28.03997 -82.54647 2007 ft 222 kts 352°
2026-05-03 23:12 28.05614 -82.54947 2224 ft 247 kts 353°
2026-05-03 23:12 28.07334 -82.55269 2776 ft 258 kts 353°
2026-05-03 23:13 28.09120 -82.55606 3512 ft 261 kts 352°
2026-05-03 23:13 28.10925 -82.55944 4296 ft 263 kts 352°
2026-05-03 23:13 28.12745 -82.56282 5089 ft 265 kts 351°
2026-05-03 23:13 28.14580 -82.56623 5828 ft 269 kts 351°
2026-05-03 23:14 28.16412 -82.56962 6554 ft 271 kts 349°
2026-05-03 23:14 28.18286 -82.57310 7243 ft 275 kts 349°
2026-05-03 23:14 28.20206 -82.57608 7897 ft 281 kts 355°
2026-05-03 23:14 28.22178 -82.57666 8581 ft 285 kts 355°
2026-05-03 23:15 28.24180 -82.57723 9278 ft 288 kts 354°
2026-05-03 23:15 28.26199 -82.57785 9969 ft 292 kts 353°
2026-05-03 23:15 28.28278 -82.57854 10311 ft 308 kts 353°
2026-05-03 23:15 28.30477 -82.57931 10429 ft 331 kts 353°
2026-05-03 23:16 28.32858 -82.58009 10613 ft 350 kts 354°
2026-05-03 23:16 28.35346 -82.58081 11096 ft 358 kts 354°
2026-05-03 23:16 28.37821 -82.58144 11659 ft 363 kts 354°
2026-05-03 23:16 28.40368 -82.58201 12237 ft 367 kts 354°
2026-05-03 23:17 28.42940 -82.58256 12830 ft 372 kts 354°
2026-05-03 23:17 28.45549 -82.58316 13418 ft 376 kts 353°
2026-05-03 23:17 28.48192 -82.58380 13957 ft 383 kts 353°
2026-05-03 23:17 28.50881 -82.58442 14472 ft 388 kts 353°
2026-05-03 23:18 28.53598 -82.58508 15015 ft 391 kts 353°
2026-05-03 23:18 28.56307 -82.58578 15549 ft 395 kts 352°
2026-05-03 23:18 28.59075 -82.58650 16108 ft 399 kts 352°
2026-05-03 23:18 28.61868 -82.58722 16651 ft 402 kts 352°
2026-05-03 23:19 28.64657 -82.58795 17192 ft 406 kts 352°
2026-05-03 23:19 28.67492 -82.58921 17708 ft 406 kts 347°
2026-05-03 23:19 28.70312 -82.59307 18238 ft 408 kts 346°
2026-05-03 23:19 28.73153 -82.59706 18701 ft 412 kts 346°
2026-05-03 23:20 28.75977 -82.60103 19177 ft 414 kts 346°
2026-05-03 23:20 28.78852 -82.60509 19655 ft 417 kts 346°
2026-05-03 23:20 28.81751 -82.60913 20152 ft 420 kts 346°
2026-05-03 23:20 28.84643 -82.61312 20631 ft 422 kts 346°
2026-05-03 23:21 28.87575 -82.61715 21105 ft 425 kts 346°
2026-05-03 23:21 28.90530 -82.62126 21574 ft 427 kts 346°
2026-05-03 23:21 28.93463 -82.62535 22018 ft 430 kts 345°
2026-05-03 23:21 28.96451 -82.62954 22462 ft 432 kts 345°
2026-05-03 23:22 29.02461 -82.63799 23331 ft 436 kts 345°
2026-05-03 23:22 29.05451 -82.64221 23754 ft 439 kts 345°
2026-05-03 23:22 29.08492 -82.64648 24116 ft 441 kts 345°
2026-05-03 23:23 29.11545 -82.65075 24465 ft 443 kts 345°
2026-05-03 23:23 29.13581 -82.65360 24696 ft 444 kts 345°
2026-05-03 23:23 29.16658 -82.65793 25045 ft 446 kts 345°
2026-05-03 23:23 29.19755 -82.66229 25392 ft 448 kts 345°
2026-05-03 23:24 29.22871 -82.66667 25723 ft 451 kts 345°
2026-05-03 23:24 29.25998 -82.67107 26054 ft 453 kts 345°
2026-05-03 23:24 29.29096 -82.67541 26387 ft 455 kts 345°
2026-05-03 23:24 29.32256 -82.67983 26714 ft 457 kts 345°
2026-05-03 23:25 29.35424 -82.68430 27071 ft 459 kts 345°
2026-05-03 23:25 29.38604 -82.68881 27375 ft 462 kts 345°
2026-05-03 23:25 29.41817 -82.69285 27672 ft 468 kts 349°
2026-05-03 23:25 29.45106 -82.69308 27963 ft 475 kts 352°
2026-05-03 23:26 29.48425 -82.69277 28275 ft 477 kts 352°
2026-05-03 23:26 29.51712 -82.69252 28569 ft 479 kts 352°
2026-05-03 23:26 29.55054 -82.69231 28863 ft 481 kts 352°
2026-05-03 23:26 29.58419 -82.69215 29163 ft 483 kts 352°
2026-05-03 23:27 29.61809 -82.69199 29467 ft 485 kts 352°
2026-05-03 23:27 29.65153 -82.69183 29781 ft 487 kts 352°
2026-05-03 23:27 29.68559 -82.69162 30160 ft 487 kts 352°
2026-05-03 23:27 29.71957 -82.69137 30505 ft 487 kts 352°
2026-05-03 23:28 29.75347 -82.69113 30845 ft 486 kts 351°
2026-05-03 23:28 29.78697 -82.69091 31170 ft 486 kts 351°
2026-05-03 23:28 29.82085 -82.69068 31494 ft 486 kts 351°
2026-05-03 23:28 29.85486 -82.69044 31820 ft 486 kts 351°
2026-05-03 23:29 29.88884 -82.69022 32134 ft 486 kts 351°
2026-05-03 23:29 29.92225 -82.69001 32484 ft 485 kts 351°
2026-05-03 23:29 29.95610 -82.68984 32821 ft 484 kts 350°
2026-05-03 23:29 29.98989 -82.68967 33151 ft 484 kts 350°
2026-05-03 23:30 30.02367 -82.68946 33475 ft 483 kts 350°
2026-05-03 23:30 30.05700 -82.68922 33783 ft 483 kts 350°
2026-05-03 23:30 30.09068 -82.68895 34061 ft 483 kts 350°
2026-05-03 23:30 30.12443 -82.68870 34118 ft 483 kts 350°
2026-05-03 23:31 30.19128 -82.68827 34119 ft 483 kts 349°
2026-05-03 23:31 30.25871 -82.68794 34165 ft 482 kts 350°
2026-05-03 23:32 30.32555 -82.68757 34185 ft 482 kts 350°
2026-05-03 23:32 30.39280 -82.68718 34185 ft 483 kts 350°
2026-05-03 23:33 30.42638 -82.68697 34354 ft 482 kts 350°
2026-05-03 23:33 30.46003 -82.68680 34585 ft 482 kts 350°
2026-05-03 23:33 30.49326 -82.68660 34814 ft 483 kts 350°
2026-05-03 23:33 30.52701 -82.68591 35046 ft 486 kts 352°
2026-05-03 23:34 30.56104 -82.68385 35173 ft 490 kts 354°
2026-05-03 23:34 30.59508 -82.68065 35206 ft 490 kts 355°
2026-05-03 23:34 30.66263 -82.67293 35204 ft 490 kts 355°
2026-05-03 23:35 30.73055 -82.66574 35204 ft 489 kts 354°
2026-05-03 23:35 30.79827 -82.65968 35185 ft 487 kts 354°
2026-05-03 23:36 30.86597 -82.65387 35183 ft 487 kts 354°
2026-05-03 23:36 30.93336 -82.64780 35186 ft 488 kts 354°
2026-05-03 23:37 31.00127 -82.64147 35143 ft 488 kts 354°
2026-05-03 23:37 31.06880 -82.63515 35139 ft 487 kts 355°
2026-05-03 23:38 31.13599 -82.62896 35136 ft 485 kts 355°
2026-05-03 23:38 31.20364 -82.62276 35138 ft 486 kts 355°
2026-05-03 23:39 31.27079 -82.61657 35143 ft 486 kts 355°
2026-05-03 23:39 31.33842 -82.61033 35163 ft 486 kts 355°
2026-05-03 23:40 31.40606 -82.60413 35142 ft 486 kts 355°
2026-05-03 23:40 31.47326 -82.59780 35131 ft 487 kts 355°
2026-05-03 23:41 31.54086 -82.59147 35129 ft 487 kts 355°
2026-05-03 23:41 31.60798 -82.58527 35133 ft 487 kts 355°
2026-05-03 23:42 31.67570 -82.57892 35126 ft 486 kts 355°
2026-05-03 23:42 31.74336 -82.57257 35126 ft 487 kts 355°
2026-05-03 23:43 31.81049 -82.56637 35127 ft 487 kts 355°
2026-05-03 23:43 31.87813 -82.56003 35131 ft 487 kts 355°
2026-05-03 23:44 31.91160 -82.55974 35113 ft 473 kts 345°
2026-05-03 23:44 31.94366 -82.56575 35109 ft 459 kts 335°
2026-05-03 23:44 31.97355 -82.57745 35107 ft 446 kts 326°
2026-05-03 23:44 32.00055 -82.59379 35105 ft 434 kts 317°
2026-05-03 23:45 32.02480 -82.61435 35102 ft 423 kts 309°
2026-05-03 23:45 32.04711 -82.63712 35102 ft 423 kts 309°
2026-05-03 23:45 32.09140 -82.68244 35107 ft 424 kts 309°
2026-05-03 23:46 32.13611 -82.72808 35114 ft 424 kts 309°
2026-05-03 23:46 32.15844 -82.75092 34970 ft 425 kts 309°
2026-05-03 23:46 32.18082 -82.77385 34732 ft 425 kts 309°
2026-05-03 23:47 32.20290 -82.79646 34519 ft 425 kts 309°
2026-05-03 23:47 32.22526 -82.81937 34288 ft 426 kts 309°
2026-05-03 23:47 32.24775 -82.84239 33939 ft 427 kts 310°
2026-05-03 23:47 32.27037 -82.86561 33083 ft 431 kts 310°
2026-05-03 23:48 32.29282 -82.88866 32308 ft 434 kts 310°
2026-05-03 23:48 32.31578 -82.91225 31528 ft 437 kts 311°
2026-05-03 23:48 32.33862 -82.93570 31088 ft 432 kts 311°
2026-05-03 23:48 32.36136 -82.95903 30523 ft 429 kts 311°
2026-05-03 23:49 32.38384 -82.98215 29922 ft 427 kts 311°
2026-05-03 23:49 32.40587 -83.00484 29358 ft 423 kts 311°
2026-05-03 23:49 32.42801 -83.02761 28838 ft 419 kts 313°
2026-05-03 23:49 32.44995 -83.05015 28254 ft 415 kts 313°
2026-05-03 23:50 32.47171 -83.07252 27715 ft 411 kts 313°
2026-05-03 23:50 32.48595 -83.08718 27346 ft 409 kts 313°
2026-05-03 23:50 32.51449 -83.11663 26650 ft 404 kts 313°
2026-05-03 23:50 32.53534 -83.13820 26135 ft 400 kts 313°
2026-05-03 23:51 32.55630 -83.15990 25626 ft 397 kts 314°
2026-05-03 23:51 32.57713 -83.18146 25110 ft 394 kts 314°
2026-05-03 23:51 32.59752 -83.20258 24619 ft 392 kts 314°
2026-05-03 23:51 32.61807 -83.22387 24139 ft 389 kts 314°
2026-05-03 23:52 32.63851 -83.24505 23656 ft 387 kts 315°
2026-05-03 23:52 32.65851 -83.26583 23150 ft 384 kts 315°
2026-05-03 23:52 32.67858 -83.28669 22697 ft 381 kts 315°
2026-05-03 23:52 32.69849 -83.30737 22248 ft 377 kts 315°
2026-05-03 23:53 32.71823 -83.32785 21813 ft 374 kts 315°
2026-05-03 23:53 32.73777 -83.34815 21349 ft 371 kts 315°
2026-05-03 23:53 32.75683 -83.36802 20918 ft 368 kts 315°
2026-05-03 23:53 32.77607 -83.38807 20463 ft 365 kts 315°
2026-05-03 23:54 32.79512 -83.40793 20007 ft 362 kts 315°
2026-05-03 23:54 32.81401 -83.42766 19549 ft 359 kts 315°
2026-05-03 23:54 32.83269 -83.44722 19093 ft 356 kts 315°
2026-05-03 23:54 32.85126 -83.46666 18630 ft 354 kts 315°
2026-05-03 23:55 32.86952 -83.48576 18132 ft 352 kts 315°
2026-05-03 23:55 32.88787 -83.50494 17592 ft 351 kts 315°
2026-05-03 23:55 32.90616 -83.52410 17071 ft 349 kts 316°
2026-05-03 23:55 32.92437 -83.54320 16605 ft 346 kts 316°
2026-05-03 23:56 32.94233 -83.56205 16132 ft 343 kts 316°
2026-05-03 23:56 32.96018 -83.58073 15675 ft 340 kts 316°
2026-05-03 23:56 32.97768 -83.59903 15217 ft 337 kts 316°
2026-05-03 23:56 32.99524 -83.61736 14763 ft 334 kts 317°
2026-05-03 23:57 33.01268 -83.63563 14308 ft 332 kts 317°
2026-05-03 23:57 33.03001 -83.65384 13828 ft 330 kts 317°
2026-05-03 23:57 33.04724 -83.67192 13343 ft 328 kts 317°
2026-05-03 23:57 33.06435 -83.68986 12887 ft 325 kts 317°
2026-05-03 23:58 33.08119 -83.70751 12551 ft 318 kts 317°
2026-05-03 23:58 33.09730 -83.72439 12423 ft 305 kts 317°
2026-05-03 23:58 33.11297 -83.74088 12279 ft 294 kts 317°
2026-05-03 23:58 33.12816 -83.75692 12007 ft 289 kts 317°
2026-05-03 23:59 33.14315 -83.77271 11760 ft 285 kts 317°
2026-05-03 23:59 33.15803 -83.78837 11513 ft 284 kts 317°
2026-05-03 23:59 33.17263 -83.80381 11267 ft 283 kts 317°
2026-05-03 23:59 33.18738 -83.81943 10916 ft 282 kts 317°
2026-05-04 00:00 33.20179 -83.83533 10556 ft 280 kts 315°
2026-05-04 00:00 33.21549 -83.85147 10173 ft 280 kts 314°
2026-05-04 00:00 33.22918 -83.86802 9791 ft 280 kts 314°
2026-05-04 00:00 33.24286 -83.88459 9394 ft 278 kts 314°
2026-05-04 00:01 33.25647 -83.90102 9020 ft 277 kts 315°
2026-05-04 00:01 33.27188 -83.91447 8779 ft 272 kts 332°
2026-05-04 00:01 33.28858 -83.92488 8653 ft 274 kts 332°
2026-05-04 00:01 33.30550 -83.93550 8525 ft 274 kts 332°
2026-05-04 00:02 33.32239 -83.94608 8395 ft 273 kts 332°
2026-05-04 00:02 33.33928 -83.95661 8274 ft 273 kts 332°
2026-05-04 00:02 33.35600 -83.96700 8145 ft 273 kts 332°
2026-05-04 00:02 33.37287 -83.97749 8019 ft 273 kts 332°
2026-05-04 00:03 33.38973 -83.98799 7895 ft 272 kts 332°
2026-05-04 00:03 33.40658 -83.99850 7762 ft 272 kts 332°
2026-05-04 00:03 33.42316 -84.00884 7649 ft 271 kts 332°
2026-05-04 00:03 33.43996 -84.01930 7506 ft 271 kts 332°
2026-05-04 00:04 33.45668 -84.02970 7397 ft 270 kts 332°
2026-05-04 00:04 33.47342 -84.04012 7272 ft 270 kts 332°
2026-05-04 00:04 33.49008 -84.05052 7147 ft 270 kts 332°
2026-05-04 00:04 33.50655 -84.06080 7028 ft 262 kts 332°
2026-05-04 00:05 33.52222 -84.07060 6906 ft 252 kts 332°
2026-05-04 00:05 33.53748 -84.08013 6784 ft 242 kts 332°
2026-05-04 00:05 33.55229 -84.08937 6573 ft 237 kts 332°
2026-05-04 00:05 33.56687 -84.09848 6326 ft 235 kts 332°
2026-05-04 00:06 33.58136 -84.10753 6068 ft 234 kts 331°
2026-05-04 00:06 33.59579 -84.11656 5814 ft 233 kts 331°
2026-05-04 00:06 33.61011 -84.12563 5594 ft 231 kts 327°
2026-05-04 00:06 33.62211 -84.13807 5427 ft 232 kts 307°
2026-05-04 00:07 33.62967 -84.15501 5228 ft 231 kts 286°
2026-05-04 00:07 33.63160 -84.17401 4958 ft 230 kts 270°
2026-05-04 00:07 33.63161 -84.19325 4659 ft 229 kts 270°
2026-05-04 00:07 33.63163 -84.21213 4366 ft 228 kts 270°
2026-05-04 00:08 33.63166 -84.23114 4055 ft 227 kts 270°
2026-05-04 00:08 33.63169 -84.24989 3765 ft 222 kts 270°
2026-05-04 00:08 33.63170 -84.26210 3566 ft 218 kts 270°
2026-05-04 00:08 33.63173 -84.27984 3298 ft 203 kts 270°
2026-05-04 00:09 33.63174 -84.30077 2962 ft 173 kts 271°
2026-05-04 00:09 33.63175 -84.31025 2795 ft 162 kts 271°
2026-05-04 00:09 33.63177 -84.32311 2588 ft 153 kts 271°
2026-05-04 00:09 33.63178 -84.33575 2386 ft 149 kts 271°
2026-05-04 00:10 33.63179 -84.34803 2195 ft 149 kts 271°
2026-05-04 00:10 33.63180 -84.36044 1998 ft 148 kts 271°
2026-05-04 00:10 33.63181 -84.37290 1802 ft 150 kts 271°
2026-05-04 00:10 33.63181 -84.38544 1586 ft 149 kts 270°
2026-05-04 00:11 33.63182 -84.39770 1388 ft 148 kts 270°
2026-05-04 00:11 33.63178 -84.41008 1178 ft 146 kts 271°
2026-05-04 00:11 33.63186 -84.42225 1017 ft 145 kts 271°
2026-05-04 00:11 33.63192 -84.43298 1008 ft 108 kts 268°
2026-05-04 00:12 33.63184 -84.43970 1004 ft 43 kts 272°
2026-05-04 00:12 33.63253 -84.44210 1006 ft 23 kts 301°
2026-05-04 00:12 33.63327 -84.44377 1006 ft 23 kts 297°
2026-05-04 00:12 33.63361 -84.44558 1006 ft 23 kts 269°
2026-05-04 00:13 33.63361 -84.44704 1006 ft 11 kts 271°
2026-05-04 00:13 33.63366 -84.44766 1006 ft 4 kts 289°
2026-05-04 00:13 33.63394 -84.44783 1006 ft 6 kts 359°
2026-05-04 00:13 33.63465 -84.44781 1006 ft 14 kts 360°
2026-05-04 00:14 33.63574 -84.44781 1006 ft 16 kts
2026-05-04 00:14 33.63658 -84.44703 1006 ft 17 kts 73°
2026-05-04 00:14 33.63663 -84.44560 1006 ft 18 kts 90°
2026-05-04 00:14 33.63663 -84.44407 1006 ft 19 kts 90°
2026-05-04 00:15 33.63663 -84.44245 1007 ft 20 kts 90°
2026-05-04 00:15 33.63664 -84.44076 1007 ft 21 kts 90°
2026-05-04 00:15 33.63663 -84.43898 1006 ft 22 kts 90°
2026-05-04 00:15 33.63663 -84.43710 1006 ft 23 kts 90°
2026-05-04 00:16 33.63664 -84.43512 1006 ft 24 kts 90°
2026-05-04 00:16 33.63664 -84.43306 1006 ft 25 kts 90°
2026-05-04 00:16 33.63665 -84.43133 1006 ft 10 kts 87°
2026-05-04 00:16 33.63703 -84.43067 1006 ft 11 kts 30°
2026-05-04 00:17 33.63777 -84.43064 1006 ft 11 kts 359°
2026-05-04 00:17 33.63860 -84.43064 1006 ft 13 kts 357°
2026-05-04 00:17 33.63931 -84.43065 1006 ft 10 kts
2026-05-04 00:17 33.63985 -84.43061 1006 ft 5 kts 20°
2026-05-04 00:18 33.63990 -84.43028 1006 ft 4 kts 109°
2026-05-04 00:18 33.63974 -84.42993 1006 ft 4 kts 117°
2026-05-04 00:18 33.63972 -84.42988 1006 ft 0 kts 118°